{"data":{"norad_id":41901,"epoch":"2026-05-25T05:31:43.455648Z","epoch_age_seconds":65221,"freshness":"FRESH","line1":"1 41901U 16081D   26145.23036407  .00000546  00000+0  12623-3 0  9995","line2":"2 41901  98.5483 134.3232 0026123  37.5931 322.7087 14.59134396500777","mean_motion":14.59134396,"eccentricity":0.0026123,"inclination_deg":98.5483,"raan_deg":134.3232,"arg_perigee_deg":37.5931,"mean_anomaly_deg":322.7087,"bstar":0.00012623,"rev_number":50077,"period_min":98.68864745753,"perigee_km":677.49063633412,"apogee_km":714.45001747426,"semimajor_km":7074.1073269042,"source":"CELESTRAK","updated_at":"2026-05-25T13:37:55.657465Z"}}